Home   Weather   Bydgoszcz   Past weeks

Flag for Poland Past Weather in Bydgoszcz, Poland — Yesterday and Last 2 Weeks

44 °F

Low clouds.

Feels Like: 42 °F
Forecast: 42 / 48 °F
Wind: 3 mph from East

Location: Torun

Current Time: Oct 21, 2016 at 6:50:54 PM

Latest Report: Oct 21, 2016 at 6:00 PM

Visibility: 1 mi

Pressure: 30.00 "Hg

Humidity: 97%

Dew Point: 43 °F

Location of BydgoszczLocation

Past Weather in Bydgoszcz — Graph


Bydgoszcz Temperature Yesterday

Maximum temperature yesterday: 49 °F (at 11:00 AM)
Minimum temperature yesterday: 46 °F (at 10:00 PM)
Average temperature yesterday: 47 °F

High & Low Weather Summary for the Past Weeks

High53 °F (Oct 19, 1:00 PM)100% (Oct 7, 4:00 AM)30.50 "Hg (Oct 7, 4:00 AM)
Low33 °F (Oct 7, 5:00 AM)52% (Oct 14, 4:00 PM)29.98 "Hg (Oct 21, 6:00 AM)
Average44 °F88%30.18 "Hg
* Reported Oct 6 5:00 PM — Oct 21 5:00 PM, Bydgoszcz, Weather by CustomWeather, © 2016

Note: Actual official high and low records may vary slightly from our data, if they occured in-between our weather recording intervals... More about our weather records


Bydgoszcz Weather History for the Previous 24 Hours

Scroll right to see more
Time TempWeatherWind HumidityBarometerVisibility
5:00 PM
Fri, Oct 21
44 °FDrizzle. Low clouds.3 mph96%30.00 "Hg1 mi
4:00 PM45 °FFog.3 mph94%30.01 "Hg2 mi
3:00 PM45 °FFog.3 mph94%30.01 "Hg1 mi
2:00 PM46 °FFog.3 mph93%30.01 "Hg2 mi
1:00 PM45 °FFog.3 mph93%30.02 "Hg2 mi
12:00 PM46 °FFog.3 mph87%30.03 "Hg6 mi
11:00 AM47 °FFog.3 mph90%30.02 "Hg5 mi
10:00 AM46 °FFog.2 mph93%30.02 "Hg4 mi
9:00 AM45 °FFog.2 mph96%30.01 "Hg2 mi
8:00 AM45 °FFog.2 mph96%30.01 "Hg2 mi
7:00 AM45 °FFog.3 mph96%29.99 "Hg2 mi
6:00 AM45 °FFog.2 mph96%29.98 "Hg2 mi
5:00 AM44 °FLow clouds.3 mph96%29.99 "Hg2 mi
3:00 AM45 °FLight rain. Low clouds.3 mph96%30.00 "Hg3 mi
2:00 AM45 °FLight rain. Low clouds.3 mph96%30.00 "Hg3 mi
1:00 AM45 °FLight rain. Low clouds.3 mph96%30.00 "Hg3 mi
12:00 AM46 °FLight rain. Low clouds.3 mph96%30.01 "Hg4 mi
11:00 PM
Thu, Oct 20
46 °FLight rain. Low clouds.3 mph97%30.02 "Hg2 mi
10:00 PM46 °FRain. Low clouds.1 mph97%30.02 "Hg3 mi
9:00 PM46 °FRain. Low clouds.1 mph97%30.02 "Hg2 mi
8:00 PM46 °FRain. Low clouds.3 mph95%30.03 "Hg2 mi
7:00 PM47 °FRain. Low clouds.3 mph96%30.03 "Hg2 mi
6:00 PM47 °FRain. Low clouds.3 mph96%30.03 "Hg2 mi
Weather by CustomWeather, © 2016

See weather overviewHow to use our weather pages